www.pogodaiklimat.ru

Погода и климат >> Архив погоды >> Россия >> Якутия >> Черский


ПОГОДА в Черском

  • Прогноз погоды в Черском
  • Монитор погоды в Черском
  • Климат города

АРХИВ ПОГОДЫ в Черском

Время (UTC), дата Ветер
(напр.,м/с)
 
Видим.   Явления Облачность Т
(С)
Тd
(С)
f
(%)
Тe
(С)
Тes
(С)
Комфортность P
(гПа)
Po
(гПа)
Тmin
(С)
Tmax
(С)
R
(мм)
R24
(мм)
S
(см)
03 15.10 З 2 10 км слабый снег 10/10 240 м
[Sc]
-1.6 -2.4 94 -6 -6 999.0 995.8
06 15.10 штиль 0 200 м слабый снег {туман} 9/0
[Ac As]
-1.6 -2.4 94 -3 -3 999.0 995.8
09 15.10 С 1 4000 м {снег, туман} 3/0
[Ac As]
-3.5 -4.0 96 -6 -6 1000.6 997.4 -1.6 0.8
12 15.10 СВ 1 4000 м {снег, туман} ясно -4.4 -5.0 96 -7 -7 1001.7 998.5
15 15.10 СВ 1 4000 м ясно -5.2 -5.9 95 -8 -8 1003.0 999.8
18 15.10 СВ 4 4000 м 1/0
[Ac As]
-3.8 -5.0 91 -10 -10 1004.6 1001.4
21 15.10 СВ 2 20 км 9/0
[Ac As]
-1.9 -4.0 86 -6 -6 1005.8 1002.6 -6.5 19
00 16.10 ЮЗ 1 20 км 8/3 600 м
[Sc Ci fib]
-1.3 -3.0 88 -3 -3 1007.4 1004.2
03 16.10 С 1 20 км слабый снег 10/8 600 м
[Sc Ac As]
+0.8 -1.8 83 -1 -1 1008.5 1005.4
06 16.10 С 2 20 км {снег} 9/3 600 м
[Sc Ci fib]
-0.6 -2.4 88 -4 -4 1009.6 1006.4
09 16.10 СВ 3 4000 м 9/6 600 м
[Sc Ci fib]
+0.2 -2.7 81 -4 -4 1011.5 1008.3 +1.1 0.0
12 16.10 С 2 4000 м 8/0
[Ac As]
-1.0 -3.9 81 -5 -5 1013.3 1010.1
15 16.10 СВ 4 4000 м 8/0
[Ac As]
-2.0 -4.8 81 -8 -8 1013.5 1010.3
18 16.10 С 3
{12}
4000 м 8/0
[Ac As]
-4.2 -6.8 82 -10 -10 1015.5 1012.3
21 16.10 С 2 20 км 8/0
[Ac As]
-5.4 -8.3 80 -10 -10 1016.3 1013.0 +0.2 19
00 17.10 С 3 10 км снег 10/8 300 м
[Sc Ac As]
-2.3 -3.5 91 -8 -8 1016.9 1013.7
03 17.10 С 3 20 км {снег} 8/4 420 м
[Sc Ac As]
-1.2 -4.1 81 -6 -6 1017.2 1014.0
06 17.10 С 3 10 км снег 10/10 300 м
[Sc]
-2.8 -3.5 95 -8 -8 1018.3 1015.1
09 17.10 С 3 4000 м слабый снег 6/4 210 м
[Sc Ac As]
-4.0 -4.5 96 -10 -10 1018.9 1015.7 -0.9 0.5
12 17.10 С 3 4000 м в посл. час снег 3/3 200 м
[St]
-5.1 -6.1 93 -11 -11 1019.3 1016.1
15 17.10 4000 м н/о -6.1 -7.2 92 -11 -11 1019.6 1016.3
18 17.10 СВ 1 4000 м 8/8 300 м
[Sc]
-6.8 -7.6 94 -9 -9 1020.3 1017.0
21 17.10 ЮВ 1 20 км 10/10 1500 м
[Sc]
-8.2 -9.2 92 -11 -11 1021.6 1018.3 -8.0 0.0 19
00 18.10 ЮВ 1 20 км 6/4 600 м
[Sc Ac trans]
-6.9 -7.8 93 -9 -9 1022.5 1019.2
03 18.10 Ю 1 20 км 6/3 600 м
[Sc Ac trans]
-5.2 -7.3 85 -8 -7 1023.4 1020.1
06 18.10 ЮВ 1 20 км 10/4 600 м
[Sc Ac und]
-8.0 -9.0 92 -10 -10 1024.5 1021.2
09 18.10 ЮВ 1 4000 м дымка 10/10 210 м
[St]
-8.4 -9.4 92 -11 -11 1025.2 1021.9 -5.2
12 18.10 В 1 200 м туман ?/? -9.5 -10.2 95 -12 -12 1026.2 1022.9
15 18.10 ЮВ 1 200 м туман ?/? -9.6 -10.8 91 -12 -12 1026.5 1023.2
18 18.10 В 1 4000 м слабый снег {туман} 10/10 400 м
[Sc]
-8.9 -10.0 92 -11 -11 1026.7 1023.4
21 18.10 штиль 0 20 км {снег} 8/6 800 м
[Sc Ac As]
-9.0 -9.7 95 -10 -10 1026.9 1023.6 -9.6 0.3 19
00 19.10 СЗ 1 10 км слабый снег 10/9 300 м
[Sc Ac As]
-6.0 -7.1 92 -8 -8 1027.2 1023.9
03 19.10 СЗ 1 10 км слабый снег 10/8 300 м
[Sc Ac As]
-6.2 -7.0 94 -9 -9 1027.1 1023.8
06 19.10 С 1 10 км слабый снег 10/10 180 м
[St]
-6.2 -6.6 97 -9 -9 1027.3 1024.0
09 19.10 СЗ 1 4000 м слабый снег 10/8 180 м
[St Ac As]
-6.4 -7.6 91 -9 -9 1027.3 1024.0 -5.6 0.6
12 19.10 СЗ 3 4000 м слабый снег 10/10 210 м
[Sc]
-6.2 -7.0 94 -12 -12 1027.3 1024.0
15 19.10 СЗ 1 4000 м слабый снег 10/10 1260 м
[Sc]
-7.1 -8.0 93 -10 -10 1027.3 1024.0
18 19.10 СЗ 2 4000 м слабый снег 10/10 960 м
[Sc]
-7.6 -8.5 93 -12 -12 1027.3 1024.0
21 19.10 СЗ 2 10 км слабый снег 10/10 240 м
[Sc]
-7.1 -7.6 96 -12 -12 1027.4 1024.1 -7.8 1 24
00 20.10 СЗ 1 20 км слабый снег 9/6 1350 м
[Sc Ac As]
-7.3 -8.1 94 -10 -10 1028.0 1024.7
03 20.10 СЗ 3 20 км слабый снег 10/10 570 м
[Sc]
-6.5 -7.3 94 -12 -12 1027.9 1024.6
06 20.10 СЗ 3 20 км слабый снег 10/8 270 м
[Sc Ac As]
-7.1 -8.0 93 -13 -13 1028.3 1025.0
09 20.10 СЗ 1 4000 м слабый снег 10/10 240 м
[St]
-6.6 -7.4 94 -9 -9 1028.8 1025.5 -6.2 1
12 20.10 СЗ 2 1000 м снег 10/8 150 м
[St As op]
-6.6 -7.4 94 -11 -11 1029.1 1025.8
15 20.10 СЗ 2 4000 м {снег} 10/8 180 м
[St As op]
-7.6 -8.5 93 -12 -12 1029.7 1026.4
18 20.10 СЗ 4 4000 м {снег} 10/6 1380 м
[Sc As op]
-7.8 -8.8 93 -15 -15 1030.4 1027.1
21 20.10 СЗ 3 20 км слабый снег 10/8 1200 м
[Sc As op]
-8.3 -8.9 95 -14 -14 1030.7 1027.4 -8.3 0.8 27
00 21.10 З 3 10 км слабый снег 9/8 300 м
[Sc Ac As]
-7.6 -8.9 90 -13 -13 1030.7 1027.4
03 21.10 СЗ 3 10 км слабый снег 8/6 300 м
[Sc Ac As]
-7.9 -9.3 90 -14 -14 1030.7 1027.4
06 21.10 СЗ 3 10 км слабый снег 10/10 400 м
[Sc]
-7.6 -8.5 93 -13 -13 1031.3 1028.0
09 21.10 СЗ 3 4000 м снег 10/10 270 м
[Sc]
-8.2 -9.2 92 -14 -14 1031.6 1028.3 -7.6 1
12 21.10 СЗ 4 4000 м снег 10/10 240 м
[St]
-8.4 -9.0 95 -15 -15 1031.9 1028.6
15 21.10 СЗ 5
{10}
4000 м снег {метель} 10/10 270 м
[St]
-9.5 -10.2 95 -17 -17 1032.7 1029.3
18 21.10 СЗ 3 4000 м снег {метель} 10/10 300 м
[Sc]
-10.4 -11.7 90 -16 -16 1033.2 1029.8
21 21.10 СЗ 2 20 км {снег} 10/9 800 м
[Sc]
-11.2 -12.5 90 -16 -16 1033.4 1030.0 -11.2 0.6 26
00 22.10 штиль 0 20 км слабый снег 10/10 330 м
[Sc]
-11.0 -12.3 90 -11 -11 1032.6 1029.2

 

Местоположение метеостанции Черский (Якутия, Россия): широта 68.73 долгота 161.30 высота над уровнем моря 28 м.

В архиве по умолчанию представлена погода в Черском за последнюю неделю. Архивные данные за месяц целиком и за предыдущие месяцы, начиная с января 2011 года, Вы можете получить, выбрав интересующий диапазон дат из раскрывающегося списка и нажав кнопку "Ввод!".

Внимание! Время в таблицах - всемирное. Для получения местного времени необходимо прибавить поправку, которая в Черском равна 11 ч.

Смотрите также архив погоды в соседних городах и на ближайших метеорологических станциях:

Погода в Анюйске (Чукотка, Россия) (43 км)
Погода в Константиновской (Чукотка, Россия) (65 км)
Погода в Бухте Амбарчик (Чукотка, Россия) (107 км)
Погода в Колымской (Якутия, Россия) (109 км)
Погода на Островном (Чукотка, Россия) (133 км)
Погода в Билибино (Чукотка, Россия) (222 км)
Погода в Раучуе (Чукотка, Россия) (223 км)
Погода в Баимке (Чукотка, Россия) (274 км)
Погода в Андрюшкино (Якутия, Россия) (276 км)
Погода на Айон Острове (Чукотка, Россия) (291 км)

Пояснения к столбцам:

Ветер - указаны скорость ветра в м/с - средняя за 10 мин, порывы в срок и между сроками (в фигурных скобках) и направление, откуда дует ветер: С - северный, СВ - северо-восточный, В - восточный, ЮВ - юго-восточный, Ю - южный, ЮЗ - юго-западный, З - западный, СЗ - северо-западный.
Видимость - горизонтальная дальность видимости в метрах или километрах. При видимости от 1 до 10 км при отсутствии осадков обычно наблюдается дымка, при ухудшении видимости до 1 км и менее - туман. В сухую погоду видимость может ухудшаться дымом, пылью или мглою.
Явления - указаны атмосферные явления, наблюдавшиеся в срок или в последний час перед сроком; фигурными скобками обозначены явления, наблюдавшиеся между сроками (за 1-3 часа до срока); квадратными скобками обозначены град или гололедные отложения с указанием их диаметра в мм.
Облачность - указаны через наклонную черту общая и нижняя облачность в баллах и высота нижней границы облаков в метрах; квадратными скобками обозначены формы облаков: Ci - перистые, Cs - перисто-слоистые, Cc - перисто-кучевые, Ac - высококучевые, As - высокослоистые, Sc - слоисто-кучевые, Ns - слоисто-дождевые, Cu - кучевые, Cb - кучево-дождевые. Подробнее классификацию облаков см. в Атласе облаков (PDF).
T - Температура воздуха - температура, измеренная на высоте 2 м над землей.
Td - Температура точки росы - температура, при понижении до которой содержащийся в воздухе водяной пар достигнет насыщения.
f - Относительная влажность воздуха - влажноcть воздуха, измеренная на высоте 2 м над землей.
Te - Эффективная температура - температура, которую ощущает одетый по сезону человек в тени. Характеристика душности погоды. При расчете учитывается влияние влажности воздуха и скорости ветра на теплоощущения человека.
Tes - Эффективная температура на солнце - температура, которую ощущает человек, с поправкой на солнечный нагрев. Характеристика знойности погоды. Зависит от высоты солнца над горизонтом, облачности и скорости ветра. Ночью, в пасмурную погоду, а также при ветре 12 м/с и более поправка равна нулю.
P - Атмосферное давление - приведенное к уровню моря атмосферное давление.
Po - Атмосферное давление - измеренное на уровне метеостанции атмосферное давление.
Tmin - Минимальная температура - минимум температуры воздуха на высоте 2 м над землей.
Tmax - Максимальная температура - максимум температуры воздуха на высоте 2 м над землей.
R - Количество осадков - Количество выпавших осадков за период времени, мм. При наведении курсора мыши на число - период времени, за который выпало указанное количество осадков.
R24 - Количество осадков - Количество выпавших осадков за 24 часа, мм.
S - Снежный покров - Высота снежного покрова, см. При наведении курсора мыши на число - состояние снежного покрова и степень покрытия местности в баллах.